[[{"header":{"parameterUnit":"m.s-1","parameterCategory":1,"la1":30.2991,"la2":30.254,"lo1":-89.0895,"lo2":-89.0444,"dy":0.0017,"dx":0.0017,"nx":28,"ny":28,"refTime":"2026-02-15T09:00:00:Z","depth":0,"parameterNumber":2,"parameterNumberName":"U-component_of_WINDS"},"data":[0,0,0,0,0,0,0,0,0,0,0,0,0,0,0,0,0,0,0,0,0,0,0,0,0,0,0,0,0,0,0,0,0,0,0,0,0,0,0,0,0,0,0,0,0,0,0,0,0,0,0,0,0,0,0,0,0,0,6.8059,6.8059,0,6.8043,6.8043,6.8043,6.798,6.7978,6.7977,6.7976,6.796,6.7961,6.7962,0,0,0,0,0,0,0,0,0,0,0,0,0,6.8039,6.804,6.8059,6.8059,6.8059,6.8043,6.8043,6.8043,6.798,6.7978,6.7977,6.7975,6.796,6.7961,6.7962,0,0,0,0,0,0,0,0,0,0,0,0,0,6.8038,6.804,6.8059,6.8026,6.8022,6.8043,6.8043,6.8042,6.7981,6.7978,6.7976,6.7974,6.7959,6.7961,6.7962,6.8014,0,0,6.7966,6.7967,0,0,0,0,0,0,0,0,6.8038,6.8039,6.8031,6.8028,6.8024,6.8011,6.803,6.8033,6.7981,6.7997,6.7976,6.7973,6.7979,6.7978,6.798,6.8013,6.8012,6.7966,6.7967,6.7968,6.7968,0,0,0,0,0,0,0,6.8038,6.8039,6.8053,6.8031,6.8027,6.8013,6.801,6.803,6.8,6.7995,6.799,6.7989,6.7977,6.7979,6.7979,6.8012,6.7966,6.7967,6.7968,6.7969,6.8091,6.8094,0,0,0,0,0,0,6.8043,6.804,6.8053,6.8052,6.8026,6.8015,6.8012,6.8018,6.8,6.7995,6.7991,6.7986,6.7978,6.7978,6.7978,6.8041,6.7968,6.7969,6.797,6.8089,6.8092,6.8095,0,0,0,0,0,0,6.8043,6.8045,6.8054,6.8045,6.8045,6.8017,6.8024,6.8018,6.8021,6.7997,6.7991,6.7999,6.7976,6.7977,6.8006,6.8039,6.797,6.7971,6.8086,6.809,6.8093,6.8164,0,0,0,0,0,0,6.8042,6.8045,6.8063,6.8046,6.8046,6.8081,6.8026,6.802,6.8023,6.8017,6.8002,6.7998,6.7974,6.8005,6.8008,6.804,6.7972,6.8083,6.8088,6.8092,6.8159,6.817,6.8179,0,0,0,0,0,6.8042,6.8083,6.8064,6.8066,6.8068,6.8083,6.8083,6.8055,6.8026,6.8045,6.8031,6.7998,6.8035,6.8008,6.8011,6.8044,6.8081,6.8087,6.8092,6.8154,6.8168,6.8179,0,0,0,0,0,0,6.8104,6.808,6.8059,6.8095,6.8092,6.8072,6.8095,6.8069,6.8073,6.8067,6.8033,6.803,6.8066,6.8058,6.8028,6.8096,6.8053,6.8059,6.8099,6.8112,6.8122,6.8123,6.7973,0,0,0,0,0,6.8122,6.8136,6.8114,6.8148,6.8148,6.8122,6.8127,6.8107,6.8102,6.81,6.8087,6.8084,6.8095,6.8103,6.8112,6.8158,6.8155,6.8182,6.8193,6.8201,6.8207,6.8235,6.8247,6.8113,6.8113,6.8112,0,0,6.8158,6.8147,6.8158,6.816,6.8155,6.8172,6.8121,6.8139,6.8152,6.8102,6.813,6.8122,6.8116,6.8156,6.8172,6.815,6.8244,6.8208,6.8215,6.8216,6.8242,6.8255,6.8266,6.8116,6.8116,6.8115,0,0,6.8235,6.8226,6.8256,6.8253,6.8246,6.823,6.8237,6.8223,6.8215,6.8243,6.8207,6.8223,6.8241,6.824,6.8242,6.8324,6.8296,6.8328,6.8381,6.8409,6.8419,6.8429,6.846,6.8472,6.8334,6.8334,6.8334,0,6.8281,6.8304,6.8274,6.8297,6.83,6.8258,6.8289,6.8287,6.8284,6.8288,6.8264,6.829,6.8283,6.8323,6.8344,6.8346,6.8355,6.8329,6.842,6.8429,6.8437,6.8467,6.8479,6.8338,6.8338,6.8337,6.8337,0,6.8363,6.838,6.8405,6.8405,6.8411,6.8438,6.8414,6.8424,6.8404,6.8391,6.8422,6.8413,6.8421,6.8429,6.8409,6.8468,6.8455,6.8426,6.8382,6.8455,6.8482,6.8493,6.8344,6.8343,6.8341,6.834,0,0,6.8475,6.8461,6.8471,6.8472,6.8464,6.8477,6.8504,6.8512,6.8523,6.8524,6.8547,6.8566,6.8541,6.8543,6.8523,6.8547,6.8616,6.8515,6.8514,6.8536,6.8685,6.8707,6.8721,6.8598,6.86,6.8601,6.8686,0,6.8549,6.8593,6.8569,6.8616,6.8634,6.8596,6.8619,6.8618,6.8608,6.8622,6.8611,6.8626,6.859,6.8592,6.8614,6.8603,6.8646,6.8596,6.862,6.8622,6.8623,6.8735,6.8757,6.8837,6.8696,6.8698,6.8699,0,6.864,6.8647,6.8697,6.869,6.8696,6.8718,6.8726,6.8739,6.8739,6.873,6.8736,6.8711,6.8739,6.8696,6.8736,6.8703,6.8712,6.8708,6.8711,6.8712,6.8665,6.8741,6.8862,6.8874,6.8715,6.8714,6.8713,0,6.872,6.8741,6.8775,6.8777,6.8768,6.8785,6.8783,6.878,6.8788,6.8796,6.8802,6.8812,6.8819,6.8829,6.8809,6.8779,6.8852,6.8807,6.8847,6.8848,6.8864,6.8863,6.899,6.8869,6.8868,6.8868,6.8868,0,6.8806,6.8838,6.8811,6.8832,6.8868,6.8842,6.8879,6.8873,6.8872,6.8892,6.886,6.888,6.8852,6.887,6.8855,6.8892,6.8894,6.8889,6.8885,6.8893,6.8893,6.8898,6.8892,6.8871,6.8871,6.887,6.8869,0,6.89,6.8883,6.8917,6.8908,6.8907,6.8935,6.8927,6.8947,6.8936,6.8963,6.8968,6.8951,6.8971,6.8952,6.897,6.8961,6.9011,6.8998,6.9011,6.9008,6.905,6.9047,6.9184,6.9202,6.9068,6.907,6.9071,0,6.8956,6.8981,6.8976,6.8987,6.8987,6.9006,6.9015,6.8992,6.9003,6.9007,6.9027,6.9045,6.9057,6.9092,6.9082,6.9097,6.9085,6.9132,6.9087,6.9095,6.9088,6.9087,6.9091,6.9141,6.9143,6.9144,6.9145,0,6.9059,6.905,6.9064,6.9077,6.9089,6.9098,6.9104,6.9116,6.9092,6.9107,6.9127,6.9138,6.9158,6.9177,6.919,6.9189,6.9165,6.916,6.917,6.9178,6.9186,6.9185,6.9037,6.9157,6.9156,6.9155,6.9154,6.9154,6.9136,6.9158,6.9159,6.9177,6.918,6.9188,6.9207,6.92,6.9217,6.9232,6.9218,6.9244,6.9247,6.9262,6.9264,6.9286,6.9266,6.928,6.9284,6.9288,6.9295,6.9183,6.9288,6.9287,6.9287,6.9287,6.9286,0,6.9239,6.9239,6.9256,6.9267,6.9282,6.9258,6.9265,6.928,6.9303,6.9308,6.9323,6.9349,6.9368,6.9361,6.9379,6.9397,6.9387,6.9403,6.9402,6.9402,6.9311,6.9301,6.9412,6.9412,6.9412,6.9412,6.9411,6.9411,6.9294,6.933,6.9323,6.9361,6.9361,6.9386,6.9393,6.9401,6.9405,6.9436,6.9452,6.9448,6.9449,6.9468,6.9485,6.9483,6.9492,6.9512,6.9506,6.9421,6.9408,6.9397,6.9387,6.9514,6.9514,6.9596,6.9597,6.9598]},{"header":{"parameterUnit":"m.s-1","parameterCategory":1,"la1":30.2991,"la2":30.254,"lo1":-89.0895,"lo2":-89.0444,"dy":0.0017,"dx":0.0017,"nx":28,"ny":28,"refTime":"2026-02-15T09:00:00:Z","depth":0,"parameterNumber":3,"parameterNumberName":"V-component_of_WINDS"},"data":[0,0,0,0,0,0,0,0,0,0,0,0,0,0,0,0,0,0,0,0,0,0,0,0,0,0,0,0,0,0,0,0,0,0,0,0,0,0,0,0,0,0,0,0,0,0,0,0,0,0,0,0,0,0,0,0,0,0,2.152,2.1521,0,2.1681,2.1683,2.1684,2.1737,2.1736,2.1735,2.1735,2.1899,2.1904,2.1909,0,0,0,0,0,0,0,0,0,0,0,0,0,2.1255,2.126,2.1519,2.1521,2.1523,2.168,2.1683,2.1685,2.1737,2.1736,2.1735,2.1734,2.1897,2.1903,2.1909,0,0,0,0,0,0,0,0,0,0,0,0,0,2.1388,2.1261,2.1519,2.1568,2.1574,2.168,2.1683,2.1685,2.1737,2.1736,2.1735,2.1734,2.1895,2.1903,2.191,2.1978,0,0,2.1933,2.1937,0,0,0,0,0,0,0,0,2.1381,2.1398,2.1559,2.1565,2.1572,2.1688,2.165,2.1784,2.1737,2.1675,2.1735,2.1733,2.1829,2.1842,2.1875,2.1986,2.1993,2.1934,2.1939,2.1942,2.1944,0,0,0,0,0,0,0,2.1371,2.1391,2.1583,2.1561,2.1569,2.1582,2.16,2.1675,2.1756,2.1681,2.1685,2.1703,2.1833,2.1867,2.1879,2.1995,2.1934,2.194,2.1945,2.1948,2.2169,2.217,0,0,0,0,0,0,2.1354,2.1383,2.1578,2.1588,2.1472,2.1587,2.1607,2.1652,2.1756,2.1771,2.1704,2.1705,2.1855,2.187,2.1885,2.1971,2.1942,2.1949,2.1953,2.2167,2.2169,2.217,0,0,0,0,0,0,2.1348,2.1371,2.1572,2.1487,2.1513,2.1593,2.1642,2.1655,2.169,2.1773,2.1788,2.1725,2.1855,2.1875,2.1954,2.1977,2.1952,2.1959,2.2166,2.2168,2.217,2.2143,0,0,0,0,0,0,2.134,2.1369,2.1396,2.1487,2.1518,2.1639,2.1644,2.1659,2.1703,2.1706,2.1797,2.1811,2.1856,2.1943,2.1962,2.1987,2.1965,2.2164,2.2167,2.2169,2.2142,2.2144,2.2145,0,0,0,0,0,2.1331,2.1382,2.1397,2.142,2.1553,2.164,2.1657,2.1708,2.1705,2.1732,2.1785,2.1808,2.1971,2.1951,2.1972,2.2,2.2163,2.2166,2.2169,2.2141,2.2143,2.2145,0,0,0,0,0,0,2.1291,2.1395,2.1413,2.1495,2.1558,2.1648,2.1685,2.1709,2.1774,2.1774,2.1834,2.1854,2.1929,2.1973,2.1948,2.2071,2.2068,2.2076,2.204,2.2042,2.2044,2.2032,2.1971,0,0,0,0,0,2.1292,2.1354,2.1441,2.1505,2.1536,2.1605,2.1644,2.1678,2.1746,2.1773,2.1832,2.1897,2.1963,2.2005,2.207,2.2148,2.2168,2.2178,2.218,2.218,2.2186,2.2229,2.2234,2.218,2.218,2.218,0,0,2.1294,2.1359,2.1394,2.1499,2.1552,2.1614,2.1627,2.1693,2.1739,2.1783,2.1862,2.1907,2.1983,2.2062,2.21,2.2101,2.2205,2.2184,2.2184,2.219,2.2233,2.2238,2.2242,2.2182,2.2182,2.2181,0,0,2.133,2.1386,2.1445,2.1497,2.1577,2.1622,2.1636,2.1723,2.1755,2.1835,2.1869,2.1924,2.2037,2.209,2.2131,2.2185,2.2207,2.2204,2.2212,2.2254,2.2258,2.2262,2.228,2.2286,2.221,2.221,2.221,0,2.1323,2.1419,2.1472,2.1535,2.158,2.1622,2.1682,2.173,2.1827,2.1856,2.1856,2.1997,2.2052,2.2143,2.2156,2.2188,2.2205,2.2195,2.2253,2.2258,2.2262,2.228,2.2287,2.2209,2.2209,2.2209,2.2209,0,2.1405,2.1471,2.1509,2.1601,2.165,2.1711,2.1773,2.1816,2.1845,2.1889,2.1969,2.2036,2.2115,2.2139,2.2168,2.2234,2.2232,2.2241,2.224,2.2266,2.2284,2.2291,2.2208,2.2208,2.2208,2.2208,0,0,2.1422,2.1542,2.1555,2.1597,2.1687,2.1739,2.1801,2.1878,2.1913,2.1978,2.2032,2.2125,2.2134,2.2181,2.2216,2.2253,2.229,2.2258,2.2261,2.2261,2.2365,2.2357,2.2364,2.2305,2.2307,2.2308,2.2358,0,2.1469,2.1583,2.1632,2.1723,2.1783,2.1824,2.1878,2.1939,2.1982,2.2039,2.2087,2.2152,2.2159,2.2188,2.2225,2.2277,2.2311,2.2274,2.2354,2.2357,2.2334,2.2374,2.2366,2.241,2.2366,2.2367,2.2368,0,2.1539,2.1604,2.1701,2.1784,2.1811,2.1859,2.1933,2.1987,2.2056,2.2085,2.2136,2.217,2.2236,2.2229,2.2321,2.2294,2.233,2.236,2.2363,2.2372,2.2364,2.2383,2.2426,2.2432,2.238,2.2379,2.2378,0,2.154,2.1652,2.1724,2.1759,2.1857,2.189,2.1932,2.2,2.2043,2.2107,2.2135,2.2206,2.2245,2.2299,2.235,2.2341,2.2436,2.2434,2.2461,2.246,2.2479,2.2477,2.2527,2.2503,2.2502,2.2502,2.2502,0,2.1588,2.1645,2.1726,2.177,2.1836,2.1891,2.1954,2.1999,2.2059,2.2112,2.2151,2.22,2.2265,2.2321,2.2362,2.243,2.2448,2.2472,2.2482,2.2469,2.2465,2.2493,2.2491,2.2504,2.2504,2.2503,2.2503,0,2.16,2.1656,2.1738,2.1823,2.1846,2.189,2.1964,2.2008,2.2052,2.2119,2.2138,2.2208,2.2276,2.2332,2.2422,2.2449,2.2521,2.2533,2.2497,2.2503,2.2526,2.2522,2.2595,2.2607,2.2574,2.2574,2.2574,0,2.1626,2.1671,2.1762,2.18,2.1842,2.1903,2.1947,2.2003,2.2047,2.2128,2.2162,2.2233,2.2294,2.2401,2.246,2.2528,2.2542,2.2562,2.2552,2.2537,2.2541,2.2538,2.2542,2.2563,2.2563,2.2563,2.2563,0,2.1666,2.1692,2.1754,2.1825,2.1876,2.1935,2.1994,2.2023,2.209,2.2137,2.2208,2.2254,2.2346,2.2416,2.249,2.2533,2.2559,2.2566,2.2575,2.2562,2.2539,2.2551,2.2499,2.2564,2.2564,2.2564,2.2564,2.2564,2.1686,2.1728,2.1798,2.1865,2.1915,2.197,2.2015,2.2065,2.2125,2.2204,2.2233,2.2305,2.2372,2.2475,2.2518,2.2575,2.2577,2.2591,2.2595,2.2598,2.2595,2.253,2.2588,2.2588,2.2588,2.2589,2.2589,0,2.1728,2.1775,2.1836,2.1918,2.197,2.199,2.2057,2.2099,2.2162,2.2223,2.2281,2.2361,2.2429,2.2492,2.2563,2.2596,2.2609,2.2612,2.261,2.262,2.2589,2.2574,2.26,2.26,2.26,2.26,2.26,2.26,2.1756,2.1827,2.186,2.1956,2.2003,2.2074,2.211,2.216,2.2209,2.2297,2.2353,2.2394,2.2455,2.253,2.2593,2.261,2.2634,2.2633,2.2653,2.2624,2.2622,2.262,2.2605,2.2638,2.2638,2.2679,2.2679,2.2679]}]]